T7GPM LIRU-LIPZ

Flight info

Callsign T7GPM
Flight time 1h 5m
Altitude 18000
Route DCT TIBER L995 LOMED L12 ADBAL/N0332F170 Y504 NIMUM/N0328F160 Z43 OTGIG OTGIG2E
Aircraft P180/L-SBDGHM1RWXY/C

Departure

Time 2026-05-06 19:20
Airport Rome Urbe Airport (LIRU)

Arrival

Time 2026-05-06 20:25
Airport Venice Marco Polo Airport (LIPZ)
Time Latitude Longitude Altitude Speed Heading
2026-05-06 19:12 41.95054 12.50492 60 ft 0 kts 84°
2026-05-06 19:16 41.95049 12.50501 60 ft 4 kts 146°
2026-05-06 19:17 41.94999 12.50487 60 ft 11 kts 188°
2026-05-06 19:17 41.94895 12.50489 60 ft 18 kts 172°
2026-05-06 19:17 41.94823 12.50476 59 ft 0 kts 246°
2026-05-06 19:18 41.94810 12.50454 62 ft 7 kts 204°
2026-05-06 19:18 41.94786 12.50455 62 ft 4 kts 211°
2026-05-06 19:19 41.94815 12.50427 62 ft 5 kts 339°
2026-05-06 19:19 41.94816 12.50427 62 ft 0 kts 341°
2026-05-06 19:19 41.94908 12.50382 61 ft 51 kts 340°
2026-05-06 19:20 41.95495 12.50101 55 ft 121 kts 341°
2026-05-06 19:20 41.96378 12.49714 389 ft 140 kts 342°
2026-05-06 19:20 41.97433 12.49400 772 ft 168 kts
2026-05-06 19:20 41.98450 12.50173 1256 ft 181 kts 46°
2026-05-06 19:21 41.99481 12.51269 1745 ft 198 kts 31°
2026-05-06 19:21 42.00823 12.51871 2245 ft 209 kts 14°
2026-05-06 19:21 42.02268 12.52289 2747 ft 215 kts 14°
2026-05-06 19:21 42.03734 12.52770 3250 ft 219 kts 15°
2026-05-06 19:22 42.05219 12.53272 3750 ft 221 kts 15°
2026-05-06 19:22 42.06715 12.53777 4255 ft 222 kts 15°
2026-05-06 19:22 42.08216 12.54280 4766 ft 223 kts 14°
2026-05-06 19:22 42.09728 12.54788 5260 ft 223 kts 14°
2026-05-06 19:23 42.11233 12.55292 5762 ft 223 kts 13°
2026-05-06 19:23 42.12743 12.55798 6276 ft 224 kts 14°
2026-05-06 19:23 42.14257 12.56314 6764 ft 224 kts 13°
2026-05-06 19:23 42.15779 12.56823 7250 ft 225 kts 13°
2026-05-06 19:24 42.17302 12.57338 7739 ft 226 kts 14°
2026-05-06 19:24 42.18823 12.57855 8236 ft 225 kts 13°
2026-05-06 19:24 42.20338 12.58359 8743 ft 223 kts 13°
2026-05-06 19:24 42.21847 12.58870 9257 ft 223 kts 12°
2026-05-06 19:25 42.23362 12.59007 9768 ft 221 kts 353°
2026-05-06 19:25 42.24851 12.58589 10251 ft 218 kts 338°
2026-05-06 19:25 42.26185 12.57681 10726 ft 213 kts 322°
2026-05-06 19:25 42.27281 12.56371 11215 ft 208 kts 308°
2026-05-06 19:26 42.28242 12.54926 11707 ft 206 kts 308°
2026-05-06 19:26 42.29214 12.53511 12206 ft 204 kts 308°
2026-05-06 19:26 42.30165 12.52103 12716 ft 202 kts 308°
2026-05-06 19:26 42.31105 12.50712 13228 ft 198 kts 308°
2026-05-06 19:27 42.32027 12.49349 13748 ft 194 kts 308°
2026-05-06 19:27 42.32929 12.48011 14217 ft 190 kts 307°
2026-05-06 19:27 42.33810 12.46705 14687 ft 185 kts 307°
2026-05-06 19:27 42.34664 12.45442 15153 ft 179 kts 306°
2026-05-06 19:28 42.35484 12.44224 15628 ft 172 kts 305°
2026-05-06 19:28 42.36273 12.43056 16114 ft 164 kts 304°
2026-05-06 19:28 42.37012 12.41962 16579 ft 155 kts 304°
2026-05-06 19:28 42.37715 12.40919 17067 ft 144 kts 302°
2026-05-06 19:29 42.38367 12.39957 17565 ft 132 kts 302°
2026-05-06 19:29 42.38954 12.39080 17972 ft 122 kts 300°
2026-05-06 19:29 42.39566 12.38144 18002 ft 144 kts 302°
2026-05-06 19:29 42.40284 12.37073 18021 ft 166 kts 303°
2026-05-06 19:30 42.41112 12.35835 18027 ft 188 kts 304°
2026-05-06 19:30 42.42036 12.34463 18026 ft 206 kts 305°
2026-05-06 19:30 42.43040 12.32975 18015 ft 221 kts 306°
2026-05-06 19:30 42.44104 12.31393 18009 ft 234 kts 306°
2026-05-06 19:31 42.45239 12.29699 18006 ft 251 kts 306°
2026-05-06 19:31 42.46454 12.27892 18001 ft 265 kts 307°
2026-05-06 19:31 42.49018 12.24068 18015 ft 284 kts 307°
2026-05-06 19:32 42.50359 12.22065 18003 ft 290 kts 307°
2026-05-06 19:32 42.51723 12.20026 18009 ft 294 kts 307°
2026-05-06 19:32 42.53104 12.17960 17999 ft 297 kts 307°
2026-05-06 19:32 42.54498 12.15874 18001 ft 299 kts 307°
2026-05-06 19:33 42.55897 12.13780 17997 ft 297 kts 307°
2026-05-06 19:33 42.57280 12.11706 17998 ft 295 kts 307°
2026-05-06 19:33 42.58651 12.09648 17993 ft 293 kts 307°
2026-05-06 19:33 42.59998 12.07623 18001 ft 292 kts 307°
2026-05-06 19:34 42.61397 12.05633 17997 ft 293 kts 313°
2026-05-06 19:34 42.63057 12.03997 18005 ft 297 kts 323°
2026-05-06 19:34 42.64883 12.02672 17996 ft 298 kts 328°
2026-05-06 19:34 42.66712 12.01355 17994 ft 296 kts 327°
2026-05-06 19:35 42.68529 12.00018 17994 ft 296 kts 327°
2026-05-06 19:35 42.70345 11.98701 17992 ft 295 kts 327°
2026-05-06 19:35 42.72138 11.97407 17990 ft 295 kts 327°
2026-05-06 19:35 42.73946 11.96093 17990 ft 294 kts 327°
2026-05-06 19:36 42.75755 11.94780 17991 ft 294 kts 327°
2026-05-06 19:36 42.77559 11.93471 17991 ft 293 kts 327°
2026-05-06 19:36 42.79363 11.92156 17991 ft 294 kts 327°
2026-05-06 19:36 42.81164 11.90847 17993 ft 293 kts 327°
2026-05-06 19:37 42.82969 11.89537 17988 ft 294 kts 327°
2026-05-06 19:37 42.84774 11.88220 17986 ft 294 kts 327°
2026-05-06 19:37 42.86580 11.86901 17988 ft 295 kts 327°
2026-05-06 19:37 42.88366 11.85597 17990 ft 295 kts 327°
2026-05-06 19:38 42.90181 11.84274 17982 ft 296 kts 327°
2026-05-06 19:38 42.92002 11.82938 17982 ft 297 kts 327°
2026-05-06 19:38 42.93828 11.81606 17984 ft 297 kts 327°
2026-05-06 19:38 42.95654 11.80269 17982 ft 298 kts 327°
2026-05-06 19:39 42.97488 11.78927 17981 ft 299 kts 327°
2026-05-06 19:39 42.99325 11.77579 17980 ft 300 kts 327°
2026-05-06 19:39 43.01168 11.76224 17981 ft 301 kts 327°
2026-05-06 19:39 43.03020 11.74871 17985 ft 302 kts 326°
2026-05-06 19:40 43.04879 11.73502 17979 ft 303 kts 326°
2026-05-06 19:40 43.06738 11.72133 17980 ft 303 kts 326°
2026-05-06 19:40 43.08598 11.70769 17973 ft 304 kts 326°
2026-05-06 19:40 43.10442 11.69413 17974 ft 304 kts 326°
2026-05-06 19:41 43.12311 11.68032 17977 ft 305 kts 326°
2026-05-06 19:41 43.14178 11.66658 17976 ft 305 kts 325°
2026-05-06 19:41 43.16043 11.65285 17972 ft 304 kts 325°
2026-05-06 19:41 43.17905 11.63912 17971 ft 303 kts 325°
2026-05-06 19:42 43.19762 11.62537 17974 ft 303 kts 324°
2026-05-06 19:42 43.21622 11.61163 17975 ft 303 kts 325°
2026-05-06 19:42 43.23482 11.59788 17971 ft 303 kts 325°
2026-05-06 19:42 43.25337 11.58416 17967 ft 303 kts 325°
2026-05-06 19:43 43.27155 11.57043 17967 ft 302 kts 325°
2026-05-06 19:43 43.29128 11.55972 17963 ft 308 kts 338°
2026-05-06 19:43 43.31221 11.55261 17962 ft 309 kts 340°
2026-05-06 19:43 43.33301 11.54538 17961 ft 308 kts 339°
2026-05-06 19:44 43.35380 11.53832 17963 ft 308 kts 340°
2026-05-06 19:44 43.37470 11.53158 17963 ft 308 kts 341°
2026-05-06 19:44 43.39549 11.52475 17962 ft 307 kts 340°
2026-05-06 19:44 43.41626 11.51774 17960 ft 307 kts 340°
2026-05-06 19:45 43.43708 11.51082 17960 ft 308 kts 340°
2026-05-06 19:45 43.45789 11.50392 17965 ft 306 kts 340°
2026-05-06 19:45 43.47832 11.49714 17966 ft 306 kts 340°
2026-05-06 19:45 43.49901 11.49025 17965 ft 305 kts 340°
2026-05-06 19:46 43.51935 11.48354 17967 ft 296 kts 340°
2026-05-06 19:46 43.53921 11.47688 17965 ft 291 kts 340°
2026-05-06 19:46 43.55882 11.47028 17963 ft 288 kts 340°
2026-05-06 19:46 43.57821 11.46384 17959 ft 286 kts 340°
2026-05-06 19:47 43.59745 11.45742 17955 ft 283 kts 340°
2026-05-06 19:47 43.61664 11.45101 17950 ft 282 kts 340°
2026-05-06 19:47 43.63563 11.44464 17949 ft 280 kts 340°
2026-05-06 19:47 43.65455 11.43831 17959 ft 279 kts 340°
2026-05-06 19:48 43.67322 11.43206 17958 ft 278 kts 340°
2026-05-06 19:48 43.69203 11.42574 17957 ft 278 kts 340°
2026-05-06 19:48 43.71078 11.41947 17958 ft 277 kts 340°
2026-05-06 19:48 43.72952 11.41318 17959 ft 277 kts 340°
2026-05-06 19:49 43.74836 11.40684 17957 ft 277 kts 340°
2026-05-06 19:49 43.76709 11.40056 17957 ft 277 kts 340°
2026-05-06 19:49 43.78580 11.39429 17956 ft 277 kts 340°
2026-05-06 19:49 43.80450 11.38795 17956 ft 276 kts 339°
2026-05-06 19:50 43.82322 11.38163 17950 ft 277 kts 340°
2026-05-06 19:50 43.84169 11.37550 17951 ft 276 kts 340°
2026-05-06 19:50 43.86037 11.36916 17957 ft 276 kts 340°
2026-05-06 19:50 43.87914 11.36280 17958 ft 276 kts 340°
2026-05-06 19:51 43.89783 11.35651 17953 ft 276 kts 340°
2026-05-06 19:51 43.91648 11.35021 17953 ft 275 kts 340°
2026-05-06 19:51 43.93482 11.34404 17952 ft 275 kts 340°
2026-05-06 19:51 43.95346 11.33771 17953 ft 274 kts 340°
2026-05-06 19:52 43.97192 11.33147 17956 ft 274 kts 340°
2026-05-06 19:52 43.99029 11.32524 17950 ft 274 kts 340°
2026-05-06 19:52 44.00885 11.31896 17957 ft 274 kts 340°
2026-05-06 19:52 44.02739 11.31268 17952 ft 274 kts 340°
2026-05-06 19:53 44.04593 11.30636 17961 ft 275 kts 340°
2026-05-06 19:53 44.06462 11.30002 17967 ft 277 kts 341°
2026-05-06 19:53 44.08340 11.29365 17962 ft 278 kts 340°
2026-05-06 19:53 44.10224 11.28726 17959 ft 278 kts 340°
2026-05-06 19:54 44.12099 11.28087 17961 ft 277 kts 340°
2026-05-06 19:54 44.13973 11.27450 17960 ft 277 kts 340°
2026-05-06 19:54 44.15823 11.26819 17959 ft 277 kts 340°
2026-05-06 19:54 44.17697 11.26179 17960 ft 277 kts 340°
2026-05-06 19:55 44.19572 11.25543 17957 ft 276 kts 340°
2026-05-06 19:55 44.21443 11.24902 17953 ft 277 kts 340°
2026-05-06 19:55 44.23319 11.24262 17952 ft 278 kts 341°
2026-05-06 19:55 44.25202 11.23620 17954 ft 279 kts 340°
2026-05-06 19:56 44.27090 11.22980 17952 ft 280 kts 342°
2026-05-06 19:56 44.29047 11.22703 17947 ft 285 kts 355°
2026-05-06 19:56 44.31011 11.22973 17933 ft 290 kts
2026-05-06 19:56 44.32952 11.23801 17934 ft 293 kts 19°
2026-05-06 19:57 44.34766 11.25129 17898 ft 295 kts 27°
2026-05-06 19:57 44.36555 11.26531 17900 ft 295 kts 26°
2026-05-06 19:57 44.38354 11.27916 17896 ft 295 kts 26°
2026-05-06 19:57 44.40147 11.29313 17891 ft 295 kts 27°
2026-05-06 19:58 44.41937 11.30715 17877 ft 295 kts 27°
2026-05-06 19:58 44.43700 11.32093 17902 ft 294 kts 27°
2026-05-06 19:58 44.45486 11.33485 17891 ft 294 kts 27°
2026-05-06 19:58 44.47273 11.34886 17887 ft 295 kts 28°
2026-05-06 19:59 44.49059 11.36281 17887 ft 294 kts 27°
2026-05-06 19:59 44.50855 11.37680 17889 ft 294 kts 27°
2026-05-06 19:59 44.52647 11.39066 17888 ft 294 kts 27°
2026-05-06 19:59 44.54439 11.40463 17888 ft 294 kts 27°
2026-05-06 20:00 44.56233 11.41861 17887 ft 295 kts 27°
2026-05-06 20:00 44.58005 11.43243 17891 ft 295 kts 28°
2026-05-06 20:00 44.59667 11.44934 17885 ft 296 kts 43°
2026-05-06 20:00 44.61040 11.47092 17884 ft 296 kts 55°
2026-05-06 20:01 44.62097 11.49571 17901 ft 295 kts 63°
2026-05-06 20:01 44.63115 11.52082 17900 ft 296 kts 62°
2026-05-06 20:01 44.64142 11.54560 17920 ft 297 kts 62°
2026-05-06 20:01 44.65169 11.57080 17919 ft 297 kts 62°
2026-05-06 20:02 44.66195 11.59605 17922 ft 298 kts 62°
2026-05-06 20:02 44.67225 11.62139 17921 ft 298 kts 62°
2026-05-06 20:02 44.68261 11.64677 17921 ft 298 kts 62°
2026-05-06 20:02 44.69290 11.67212 17916 ft 299 kts 62°
2026-05-06 20:03 44.69973 11.68897 17916 ft 299 kts 62°
2026-05-06 20:03 44.71005 11.71438 17914 ft 299 kts 62°
2026-05-06 20:03 44.72367 11.74801 17915 ft 299 kts 62°
2026-05-06 20:03 44.73399 11.77350 17792 ft 303 kts 62°
2026-05-06 20:04 44.74111 11.79111 17561 ft 310 kts 62°
2026-05-06 20:04 44.75197 11.81805 17153 ft 320 kts 62°
2026-05-06 20:04 44.76294 11.84508 16732 ft 322 kts 62°
2026-05-06 20:04 44.77576 11.87097 16310 ft 324 kts 51°
2026-05-06 20:05 44.79146 11.89385 15882 ft 325 kts 42°
2026-05-06 20:05 44.80953 11.91304 15444 ft 325 kts 32°
2026-05-06 20:05 44.82829 11.93050 15025 ft 320 kts 33°
2026-05-06 20:05 44.84650 11.94817 14600 ft 315 kts 34°
2026-05-06 20:06 44.86455 11.96546 14187 ft 311 kts 33°
2026-05-06 20:06 44.88244 11.98242 13780 ft 308 kts 33°
2026-05-06 20:06 44.90015 11.99937 13344 ft 308 kts 33°
2026-05-06 20:06 44.91765 12.01617 12935 ft 308 kts 34°
2026-05-06 20:07 44.93396 12.03569 12525 ft 307 kts 44°
2026-05-06 20:07 44.94968 12.05605 12123 ft 306 kts 41°
2026-05-06 20:07 44.96584 12.07551 11719 ft 305 kts 40°
2026-05-06 20:07 44.98262 12.09369 11311 ft 303 kts 31°
2026-05-06 20:08 45.00163 12.10607 10910 ft 299 kts 17°
2026-05-06 20:08 45.02160 12.11301 10604 ft 292 kts
2026-05-06 20:08 45.04163 12.11431 10309 ft 284 kts 353°
2026-05-06 20:08 45.06082 12.10994 10016 ft 275 kts 338°
2026-05-06 20:09 45.07769 12.09894 9734 ft 265 kts 322°
2026-05-06 20:09 45.09108 12.08253 9457 ft 245 kts 304°
2026-05-06 20:09 45.09969 12.06281 9217 ft 228 kts 287°
2026-05-06 20:09 45.10316 12.04173 9002 ft 214 kts 269°
2026-05-06 20:10 45.10168 12.02146 8907 ft 200 kts 254°
2026-05-06 20:10 45.09777 12.00322 8900 ft 187 kts 244°
2026-05-06 20:10 45.09185 11.98734 8896 ft 178 kts 235°
2026-05-06 20:10 45.08424 11.97390 8899 ft 172 kts 226°
2026-05-06 20:11 45.07547 11.96306 8894 ft 168 kts 219°
2026-05-06 20:11 45.06651 11.95274 8897 ft 165 kts 221°
2026-05-06 20:11 45.05768 11.94171 8895 ft 178 kts 223°
2026-05-06 20:11 45.04800 11.92955 8903 ft 194 kts 222°
2026-05-06 20:12 45.03764 11.91655 8916 ft 204 kts 222°
2026-05-06 20:12 45.02687 11.90286 8912 ft 211 kts 225°
2026-05-06 20:12 45.01834 11.88575 8911 ft 216 kts 243°
2026-05-06 20:12 45.01447 11.86503 8915 ft 222 kts 262°
2026-05-06 20:13 45.01572 11.84304 8912 ft 229 kts 279°
2026-05-06 20:13 45.02206 11.82208 8911 ft 236 kts 297°
2026-05-06 20:13 45.03294 11.80455 8909 ft 240 kts 315°
2026-05-06 20:13 45.04721 11.79247 8907 ft 245 kts 333°
2026-05-06 20:14 45.06390 11.78694 8909 ft 250 kts 351°
2026-05-06 20:14 45.08131 11.78875 8906 ft 254 kts
2026-05-06 20:14 45.09778 11.79784 8904 ft 256 kts 28°
2026-05-06 20:14 45.11180 11.81349 8902 ft 257 kts 46°
2026-05-06 20:15 45.12197 11.83423 8903 ft 257 kts 65°
2026-05-06 20:15 45.12876 11.85748 8904 ft 256 kts 69°
2026-05-06 20:15 45.13662 11.88012 8870 ft 257 kts 60°
2026-05-06 20:15 45.14777 11.90019 8743 ft 262 kts 43°
2026-05-06 20:16 45.16185 11.91670 8622 ft 264 kts 37°
2026-05-06 20:16 45.17631 11.93286 8493 ft 265 kts 39°
2026-05-06 20:16 45.19035 11.94975 8367 ft 266 kts 39°
2026-05-06 20:16 45.20425 11.96657 8242 ft 266 kts 41°
2026-05-06 20:17 45.21802 11.98411 8114 ft 266 kts 41°
2026-05-06 20:17 45.23170 12.00163 7934 ft 258 kts 41°
2026-05-06 20:17 45.24415 12.01759 7498 ft 235 kts 41°
2026-05-06 20:17 45.25630 12.03319 6915 ft 235 kts 41°
2026-05-06 20:18 45.26847 12.04876 6331 ft 235 kts 41°
2026-05-06 20:18 45.28035 12.06398 5726 ft 217 kts 42°
2026-05-06 20:18 45.29109 12.07774 5123 ft 202 kts 42°
2026-05-06 20:18 45.30122 12.09072 4533 ft 196 kts 43°
2026-05-06 20:19 45.31100 12.10308 3931 ft 178 kts 42°
2026-05-06 20:19 45.31990 12.11448 3450 ft 168 kts 43°
2026-05-06 20:19 45.32852 12.12555 3014 ft 164 kts 43°
2026-05-06 20:19 45.33659 12.13582 2982 ft 149 kts 41°
2026-05-06 20:20 45.34414 12.14544 2981 ft 143 kts 43°
2026-05-06 20:20 45.35150 12.15488 2981 ft 142 kts 43°
2026-05-06 20:20 45.35879 12.16425 2975 ft 141 kts 42°
2026-05-06 20:20 45.36619 12.17360 2977 ft 145 kts 42°
2026-05-06 20:21 45.37378 12.18335 2942 ft 152 kts 43°
2026-05-06 20:21 45.38164 12.19356 2832 ft 157 kts 43°
2026-05-06 20:21 45.38956 12.20395 2825 ft 154 kts 43°
2026-05-06 20:21 45.39747 12.21441 2736 ft 156 kts 43°
2026-05-06 20:22 45.40553 12.22521 2468 ft 159 kts 44°
2026-05-06 20:22 45.41328 12.23552 2404 ft 148 kts 43°
2026-05-06 20:22 45.42112 12.24514 2228 ft 150 kts 39°
2026-05-06 20:22 45.42926 12.25448 2051 ft 149 kts 40°
2026-05-06 20:23 45.43709 12.26413 1780 ft 152 kts 44°
2026-05-06 20:23 45.44480 12.27434 1496 ft 150 kts 43°
2026-05-06 20:23 45.45248 12.28417 1275 ft 147 kts 42°
2026-05-06 20:23 45.45987 12.29409 1027 ft 145 kts 44°
2026-05-06 20:24 45.46706 12.30386 811 ft 141 kts 41°
2026-05-06 20:24 45.47432 12.31312 620 ft 137 kts 40°
2026-05-06 20:24 45.48168 12.32176 416 ft 136 kts 38°
2026-05-06 20:24 45.48870 12.33082 203 ft 136 kts 42°
2026-05-06 20:25 45.49559 12.33964 43 ft 131 kts 41°
2026-05-06 20:25 45.50171 12.34745 12 ft 104 kts 43°
2026-05-06 20:25 45.50603 12.35303 5 ft 53 kts 42°
2026-05-06 20:25 45.50818 12.35580 10 ft 45 kts 41°
2026-05-06 20:26 45.50972 12.35764 6 ft 24 kts 32°
2026-05-06 20:26 45.51128 12.35861 5 ft 21 kts
2026-05-06 20:26 45.51215 12.35883 4 ft 6 kts 10°
2026-05-06 20:26 45.51286 12.35877 6 ft 5 kts 311°
2026-05-06 20:27 45.51266 12.35821 6 ft 9 kts 240°
2026-05-06 20:27 45.51216 12.35746 7 ft 12 kts 222°
2026-05-06 20:27 45.51151 12.35662 9 ft 14 kts 222°
2026-05-06 20:27 45.51074 12.35561 9 ft 17 kts 224°
2026-05-06 20:28 45.50995 12.35429 13 ft 18 kts 245°
2026-05-06 20:28 45.50962 12.35253 13 ft 20 kts 258°
2026-05-06 20:28 45.50923 12.35161 13 ft 7 kts 222°
2026-05-06 20:28 45.50877 12.35103 13 ft 11 kts 221°
2026-05-06 20:29 45.50809 12.35016 10 ft 16 kts 222°
2026-05-06 20:29 45.50717 12.34898 9 ft 19 kts 223°
2026-05-06 20:29 45.50662 12.34826 9 ft 8 kts 222°
2026-05-06 20:29 45.50629 12.34781 8 ft 7 kts 230°
2026-05-06 20:30 45.50605 12.34693 8 ft 11 kts 265°
2026-05-06 20:30 45.50594 12.34440 9 ft 8 kts 259°
2026-05-06 20:30 45.50559 12.34359 9 ft 11 kts 275°
2026-05-06 20:31 45.50615 12.34286 8 ft 14 kts 270°
2026-05-06 20:31 45.50612 12.34194 8 ft 0 kts 267°